Home   Weather   Stendal   Past weeks

Flag for Germany Past Weather in Stendal, Saxony-Anhalt, Germany — Yesterday and Last 2 Weeks

Now
46 °F

Drizzle. Fog.


Feels Like: 43 °F
Forecast: 32 / 45 °F
Wind: 7 mph from West

Location: Berlin-Tegel

Current Time: Dec 11, 2016 at 1:38:10 am

Latest Report: Dec 11, 2016 at 1:20 am


Visibility: 3 mi

Pressure: 29.98 "Hg

Humidity: 93%

Dew Point: 45 °F

Location of StendalLocation

Past Weather in Stendal — Graph

°F

Stendal Temperature Yesterday

Maximum temperature yesterday: 50 °F (at 3:50 am)
Minimum temperature yesterday: 46 °F (at 5:50 pm)
Average temperature yesterday: 48 °F

High & Low Weather Summary for the Past Weeks

 TemperatureHumidityPressure
High52 °F (Dec 8, 1:20 pm)100% (Nov 26, 2:50 am)30.57 "Hg (Nov 26, 2:50 am)
Low19 °F (Nov 29, 1:20 am)56% (Nov 28, 2:20 pm)29.74 "Hg (Dec 1, 10:20 pm)
Average36 °F87%30.24 "Hg
* Reported Nov 26 12:20 am — Dec 11 12:20 am, Stendal, Weather by CustomWeather, © 2016

Note: Actual official high and low records may vary slightly from our data, if they occured in-between our weather recording intervals... More about our weather records

Advertising

Stendal Weather History for the Previous 24 Hours

Scroll right to see more
 ConditionsComfort  
Time TempWeatherWind HumidityBarometerVisibility
12:20 am
Sun, Dec 11
46 °FDrizzle. Fog.10 mph93%30.01 "Hg3 mi
11:50 pm
Sat, Dec 10
46 °FPassing clouds.10 mph93%30.04 "Hg4 mi
11:20 pm46 °FPassing clouds.10 mph93%30.04 "Hg4 mi
10:50 pm46 °FPassing clouds.12 mph93%30.04 "Hg5 mi
10:20 pm46 °FPassing clouds.10 mph93%30.04 "Hg5 mi
9:50 pm46 °FPassing clouds.8 mph93%30.07 "Hg5 mi
9:20 pm46 °FPassing clouds.10 mph93%30.07 "Hg4 mi
8:50 pm46 °FPassing clouds.10 mph93%30.07 "Hg4 mi
8:20 pm46 °FPassing clouds.12 mph93%30.07 "Hg5 mi
7:50 pm46 °FPassing clouds.10 mph93%30.09 "Hg5 mi
7:20 pm46 °FPassing clouds.10 mph93%30.09 "HgN/A
6:50 pm46 °FPassing clouds.12 mph93%30.09 "HgN/A
6:20 pm46 °FLow clouds.13 mph93%30.09 "HgN/A
5:50 pm46 °FLow clouds.13 mph93%30.09 "HgN/A
5:20 pm48 °FLow clouds.13 mph87%30.09 "HgN/A
4:50 pm48 °FLight rain. Passing clouds.14 mph87%30.09 "HgN/A
4:20 pm48 °FLight rain. Passing clouds.14 mph87%30.09 "HgN/A
3:50 pm48 °FLight rain. Partly sunny.13 mph82%30.09 "HgN/A
3:20 pm48 °FLight rain. Partly sunny.15 mph82%30.09 "HgN/A
2:50 pm48 °FLight rain. Partly sunny.15 mph82%30.09 "HgN/A
2:20 pm50 °FPartly sunny.13 mph76%30.07 "HgN/A
1:50 pm50 °FPartly sunny.16 mph76%30.07 "HgN/A
1:20 pm50 °FPartly sunny.15 mph76%30.07 "HgN/A
12:50 pm50 °FBroken clouds.17 mph76%30.07 "HgN/A
12:20 pm50 °FSunny.17 mph76%30.07 "Hg10 mi
11:50 am50 °FPassing clouds.14 mph76%30.07 "HgN/A
11:20 am50 °FSunny.16 mph76%30.07 "Hg10 mi
10:50 am50 °FSunny.14 mph76%30.09 "Hg10 mi
10:20 am50 °FSunny.12 mph82%30.09 "Hg10 mi
9:50 am50 °FSunny.10 mph82%30.09 "Hg10 mi
9:20 am48 °FSunny.9 mph87%30.09 "Hg10 mi
8:50 am48 °FSunny.8 mph87%30.09 "Hg10 mi
8:20 am48 °FSunny.10 mph87%30.09 "Hg10 mi
7:50 am48 °FClear.13 mph87%30.09 "Hg10 mi
7:20 am48 °FClear.13 mph87%30.09 "Hg10 mi
6:50 am48 °FClear.12 mph87%30.09 "Hg10 mi
6:20 am48 °FClear.10 mph87%30.09 "Hg10 mi
5:50 am48 °FClear.10 mph87%30.09 "Hg10 mi
5:20 am48 °FPassing clouds.12 mph87%30.12 "HgN/A
4:50 am48 °FPassing clouds.12 mph87%30.12 "HgN/A
4:20 am48 °FPassing clouds.13 mph94%30.12 "HgN/A
3:50 am50 °FPassing clouds.13 mph88%30.12 "HgN/A
3:20 am48 °FPartly cloudy.10 mph94%30.12 "HgN/A
2:50 am48 °FPassing clouds.12 mph94%30.15 "HgN/A
2:20 am48 °FPartly cloudy.14 mph94%30.12 "Hg5 mi
1:50 am48 °FPartly cloudy.12 mph94%30.15 "Hg5 mi
1:20 am48 °FPartly cloudy.13 mph94%30.15 "Hg4 mi
Weather by CustomWeather, © 2016

See weather overviewHow to use our weather pages